Rome/Ciampino Airport

Airport
ICAO code: 
LIRA
IATA Code: 
CIA
Summary
ICAO Region: 
EUR
Territory: 
Location: 
Ciampino, Lazio
Serving: 
Rome
Elevation: 
427 ft
Coordinates: 
Aerial View: 
41° 47' 54" N, 12° 35' 48" E
Metar
Observation
LIRA 191320Z 21004KT 180V240 9999 SCT030 12/05 Q1029
Station
Roma / Ciampino
Date/Time
2022-01-19 13:20:00
Wind direction
210°
Wind speed
04 kts
Lowest cloud amount
scattered clouds
Temperature
12°C
Dew point
5°C
Humidity
62%
QNH
1029 hPa
Weather condition
n/a

Secondary international airport serving Rome.

Climatology

Dry-summer subtropical ”Mediterranean" climate (Köppen climate classification Csa) - characterized by hot, dry summers and mild winters. During the summer, subtropical high pressure cells dominate, making rainfall unlikely except for the occasional thunderstorm. In the winter, periodic storms bring rain (snow at higher elevations).

Runways

Designator Length Width Surface Rops
15/33 2207 47 ASP Yes/Yes
Airport map: 
Aerial View: 

Accidents and Serious Incidents at or in the vicinity of LIRA

SKYbrary Partners:

Safety knowledge contributed by: